Weather History for Fallon NAS, NV

Change the Weather History Date:

Friday, December 7, 2012

  Actual Average Record
Temperature  
Mean Temperature 31 °F -  
Max Temperature 59 °F 47 °F 65 °F (1977)
Min Temperature 3 °F 21 °F 3 °F (2012)
Degree Days  
Heating Degree Days 34    
Moisture  
Dew Point 30 °F    
Average Humidity 65    
Maximum Humidity 81    
Minimum Humidity 36    
Precipitation  
Precipitation 0.00 in - - ()
Sea Level Pressure  
Sea Level Pressure 30.08 in    
Wind  
Wind Speed 4 mph (SSE)    
Max Wind Speed 6 mph    
Max Gust Speed -    
Visibility 4 miles    
Events Fog    
Averages and records for this station are not official NWS values.
T = Trace of Precipitation, MM = Missing Value Source: NWS Daily Summary

Daily Weather History Graph

Daily Weather History Graph

Search for Another Location

Airport:

Trip Planner

Search our weather history database for the weather conditions in past years. The results will help you decide how hot, cold, wet, or windy it might be!

Date:

Astronomy

Dec. 07, 2012 Rise Set
Actual Time 7:01 AM PST 4:31 PM PST
Civil Twilight 6:31 AM PST 5:01 PM PST
Nautical Twilight 5:58 AM PST 5:34 PM PST
Astronomical Twilight 5:25 AM PST 6:07 PM PST
Moon 12:28 AM PST (12/7) 12:29 PM PST (12/7)
Length of Visible Light 10h 29m
Length of Day
9h 29m
Last Quarter, 37% of the Moon is Illuminated
Dec 7
Last Quarter
Dec 13
New
Dec 19
First Quarter
Dec 28
Full
Jan 4
Last Quarter

Hourly Weather History & Observations

Time (PST) Temp. Windchill Dew Point Humidity Pressure Visibility Wind Dir Wind Speed Gust Speed Precip Events Conditions
12:56 AM - - - N/A% - - North - - N/A Fog Fog
1:56 AM - - - N/A% - - North - - N/A Fog Fog
2:56 AM - - - N/A% - - North - - N/A Fog Fog
3:56 AM - - - N/A% - - North - - N/A Fog Fog
4:56 AM - - - N/A% - - North - - N/A Fog Fog
5:56 AM - - - N/A% 30.06 in - North - - N/A Fog Fog
6:09 AM 30.2 °F 26.7 °F 24.8 °F 80% 30.13 in 0.1 mi South 3.5 mph - N/A Fog Fog
6:56 AM 35.6 °F 32.8 °F 30.2 °F 81% 30.12 in 0.1 mi South 3.5 mph - N/A Fog Fog
7:09 AM - - - N/A% 30.16 in - North - - N/A Fog Fog
7:15 AM 35.6 °F 32.8 °F 30.2 °F 81% 30.12 in 2.0 mi South 3.5 mph - N/A   Scattered Clouds
7:56 AM 37.4 °F 34.9 °F 21.2 °F 52% 30.14 in 2.0 mi South 3.5 mph - N/A   Scattered Clouds
8:13 AM 37.4 °F 34.9 °F 21.2 °F 52% 30.18 in 3.0 mi South 3.5 mph - N/A   Scattered Clouds
8:37 AM 3.2 °F -4.2 °F -5.8 °F 66% 30.18 in 2.0 mi SSE 3.5 mph - N/A   Scattered Clouds
8:56 AM - - - N/A% 30.07 in 1.0 mi Variable 3.5 mph - N/A   Scattered Clouds
9:09 AM 35.6 °F 32.8 °F 28.4 °F 75% 30.18 in 0.5 mi Variable 3.5 mph - N/A Fog Fog
9:13 AM 35.6 °F 30.7 °F 28.4 °F 75% 30.18 in 0.1 mi ENE 5.8 mph - N/A Fog Fog
9:17 AM 35.6 °F 30.7 °F 28.4 °F 75% 30.18 in 0.1 mi ENE 5.8 mph - N/A Fog Fog
9:37 AM 35.6 °F 32.8 °F 28.4 °F 75% 30.18 in 0.5 mi Variable 3.5 mph - N/A Fog Fog
9:56 AM 41.0 °F 39.0 °F 32.0 °F 70% 30.08 in 0.5 mi Variable 3.5 mph - N/A Fog Fog
10:00 AM 41.0 °F 39.0 °F 32.0 °F 70% 30.19 in 0.1 mi Variable 3.5 mph - N/A Fog Fog
10:09 AM 41.0 °F 39.0 °F 32.0 °F 70% 30.19 in 0.5 mi Variable 3.5 mph - N/A Fog Fog
10:38 AM 41.0 °F 39.0 °F 32.0 °F 70% 30.18 in 1.5 mi Variable 3.5 mph - N/A   Mostly Cloudy
10:56 AM 46.4 °F 45.2 °F 37.4 °F 71% 30.07 in 2.0 mi Variable 3.5 mph - N/A   Mostly Cloudy
11:32 AM 46.4 °F 43.5 °F 37.4 °F 71% 30.15 in 3.0 mi Variable 5.8 mph - N/A   Mostly Cloudy
11:56 AM 46.4 °F 43.5 °F 37.4 °F 71% 30.04 in 3.0 mi Variable 5.8 mph - N/A   Mostly Cloudy
12:56 PM 55.4 °F - 37.4 °F 51% 30.02 in 10.0 mi Variable 3.5 mph - N/A   Mostly Cloudy
1:56 PM 57.2 °F - 35.6 °F 44% 29.99 in 10.0 mi Variable 3.5 mph - N/A   Mostly Cloudy
2:56 PM 59.0 °F - 32.0 °F 36% 29.98 in 10.0 mi Variable 3.5 mph - N/A   Mostly Cloudy
3:56 PM 59.0 °F - 32.0 °F 36% 29.98 in 10.0 mi Variable 3.5 mph - N/A   Mostly Cloudy
4:56 PM 51.8 °F - 35.6 °F 54% 29.97 in 10.0 mi Variable 3.5 mph - N/A   Mostly Cloudy
5:56 PM 46.4 °F 45.2 °F 33.8 °F 62% 29.98 in 10.0 mi Variable 3.5 mph - N/A   Mostly Cloudy
6:56 PM 48.2 °F - 35.1 °F 60% 29.97 in 10.0 mi Variable 3.5 mph - N/A   Mostly Cloudy
7:56 PM 44.6 °F 43.1 °F 36.1 °F 72% 29.97 in 10.0 mi Variable 3.5 mph - N/A   Mostly Cloudy
8:56 PM 40.6 °F 38.6 °F 32.0 °F 71% 29.97 in 10.0 mi Variable 3.5 mph - N/A   Mostly Cloudy
9:56 PM 41.0 °F 39.0 °F 30.2 °F 65% 29.98 in 10.0 mi Variable 3.5 mph - N/A   Mostly Cloudy
10:56 PM - - - N/A% 29.98 in - North - - N/A   Unknown
11:56 PM - - - N/A% 29.97 in - North - - N/A   Unknown